Regional Weather Roundup
Issued by NWS Huntsville, AL

Home | Current Version | Previous Version | Text Only | Print | Product List | Glossary On
Versions: 1 2 3 4 5 6 7 8 9 10 11 12 13 14 15 16 17 18 19 20 21 22 23 24 25 26 27 28 29 30 31 32 33 34 35 36 37 38 39 40 41 42 43 44 45 46 47 48 49 50
000
ASUS44 KHUN 210910
RWRHUN

WEATHER ROUNDUP FOR THE TENNESSEE VALLEY
NATIONAL WEATHER SERVICE HUNTSVILLE AL
400 AM CDT TUE OCT 21 2014

ALZ001>004-211000-
NORTHWEST ALABAMA

CITY           SKY/WX    TMP DP  RH WIND       PRES   REMARKS
SHOALS AIRPORT CLEAR     47  44  90 CALM      30.03F
$$

ALZ005>007-016-211000-
NORTH CENTRAL ALABAMA

CITY           SKY/WX    TMP DP  RH WIND       PRES   REMARKS
DECATUR AP     CLEAR     48  46  93 CALM      30.03F
HUNTSVILLE AP  CLEAR     51  48  89 CALM      30.02F
MERIDIANVILLE  PTCLDY    45  41  87 CALM      30.02S
VINEMONT AP    FAIR      46  45  98 CALM      30.05S
$$

ALZ008>010-211000-
NORTHEAST ALABAMA

CITY           SKY/WX    TMP DP  RH WIND       PRES   REMARKS
ALBERTVILLE    CLEAR     48  48 100 CALM      30.02R
FORT PAYNE     CLEAR     43  41  93 CALM      30.02S FOG
SCOTTSBORO AP  PTCLDY    46  46 100 CALM      30.03S
SCOTTSBORO HCN   N/A     45 N/A N/A MISG        N/A
VALLEY HEAD      N/A     45 N/A N/A MISG        N/A
$$

TNZ076-096-097-211000-
SOUTHEASTERN MIDDLE TENNESSEE

CITY           SKY/WX    TMP DP  RH WIND       PRES   REMARKS
TULLAHOMA      CLEAR     43  41  93 CALM      30.02S
WINCHESTER     PTCLDY    45  45 100 CALM      30.02S
$$

...SURROUNDING SITES...

CITY           SKY/WX    TMP DP  RH WIND       PRES   REMARKS
ATLANTA        CLEAR     54  50  86 NW5       29.99F
ANNISTON       CLEAR     48  46  93 CALM      30.02F FOG
BIRMINGHAM     CLEAR     51  48  89 CALM      30.04F
CHATTANOOGA    CLEAR     50  48  93 CALM      30.01S
CORINTH        FAIR      48  46  93 CALM      30.02S
DALTON         FOG       45  45 100 CALM      30.01S VSB 3/4
GADSDEN        CLEAR     46  43  87 CALM      30.03S
GOLDEN TRNGL   CLEAR     48  45  87 CALM      30.03S
HALEYVILLE     FAIR      46  46 100 CALM      30.05F
JACKSON TN     CLEAR     50  48  93 CALM      30.02S
MEMPHIS        CLEAR     56  52  86 CALM      30.02F
NASHVILLE      CLEAR     50  48  93 CALM      30.00F
OXFORD MS      FAIR      46  46 100 CALM      30.05S
ROME           CLEAR     47  45  93 CALM      30.01S
SAVANNAH       CLEAR     46  46 100 CALM      30.02S
TUPELO         CLEAR     50  48  93 CALM      30.03S FOG
TUSCALOOSA     CLEAR     51  48  89 CALM      30.03S
$$

...GULF COAST WEATHER...

CITY           SKY/WX    TMP DP  RH WIND       PRES   REMARKS
GULFPORT       CLEAR     54  51  90 CALM      30.00S
PASCAGOULA     CLEAR     48  47  96 CALM      30.00F
MOBILE         CLEAR     53  51  93 N5        30.00F
GULF SHORES    SUNNY     51  50  97 CALM      30.00R
PENSACOLA      CLEAR     53  51  93 NW3       29.99S
DESTIN         CLEAR     64  53  67 NE6       29.98F
PANAMA CITY    CLEAR     62  57  83 NE2       29.97F
APPALACHICOLA  MOCLDY    65  61  87 N5        29.95F
$$



USA.gov is the U.S. government's official web portal to all federal, state and local government web resources and services.